EW7899 Weather Reports


Display with metric or nautical units.
time (UTC)temp
F
wind
direction
speed
MPH
gust
MPH
rain 1hr
in
rain 24hr
in
rain mn
in
humidity
%
barometer
mb
20260831080018 54 359 0.0 0.0 0.00 0.07 0.00 95 1017.0
20260831074511 55 314 0.0 0.0 0.00 0.07 0.00 95 1016.9
20260831073020 55 314 0.0 0.0 0.00 0.07 0.00 95 1016.8
20260831071509 56 359 0.0 0.0 0.00 0.07 0.00 95 1016.8
20260831070016 56 316 0.0 1.0 0.00 0.07 0.00 95 1016.8
20260831064505 57 316 0.0 0.0 0.00 0.07 0.00 94 1016.8
20260831063014 58 314 0.0 0.0 0.00 0.07 0.00 95 1016.7
20260831061514 58 315 0.0 0.0 0.00 0.07 0.00 95 1016.6
20260831060013 59 315 0.0 0.0 0.00 0.07 0.00 95 1016.7
20260831054504 60 314 0.0 0.0 0.00 0.07 0.00 95 1016.7
20260831053014 60 314 0.0 0.0 0.00 0.07 0.00 95 1016.8
20260831051529 60 314 0.0 0.0 0.00 0.07 0.00 95 1016.9
20260831050013 60 315 0.0 0.0 0.00 0.07 0.00 95 1016.9
20260831044523 61 314 0.0 0.0 0.00 0.07 0.00 95 1016.8
20260831043012 61 314 0.0 0.0 0.00 0.07 0.00 95 1016.8
20260831041531 61 359 0.0 1.0 0.01 0.07 0.00 95 1016.8
20260831040030 61 316 0.0 0.0 0.01 0.07 0.07 95 1016.4
20260831034519 61 316 0.0 0.0 0.01 0.07 0.07 94 1016.2
20260831033009 61 316 0.0 0.0 0.01 0.07 0.07 94 1016.2
20260831031505 61 315 0.0 9.0 0.00 0.06 0.06 93 1016.2
20260831030016 62 343 0.0 0.0 0.00 0.06 0.06 93 1015.9
20260831024505 62 343 2.0 5.0 0.00 0.06 0.06 92 1015.8
20260831023015 62 312 0.0 5.0 0.00 0.06 0.06 92 1015.5
20260831021523 63 359 0.0 5.0 0.00 0.06 0.06 91 1015.7
20260831020008 63 293 0.0 2.0 0.00 0.06 0.06 90 1015.7
20260831014510 64 268 1.0 7.0 0.00 0.06 0.06 89 1015.5
20260831013018 65 292 2.0 6.0 0.00 0.06 0.06 88 1015.3
20260831011502 64 308 2.0 12.0 0.00 0.06 0.06 88 1015.2
20260831010015 64 300 2.0 8.0 0.00 0.06 0.06 89 1014.9
20260831004516 65 303 0.0 5.0 0.00 0.06 0.06 88 1014.8
20260831003024 65 359 1.0 7.0 0.00 0.06 0.06 87 1014.7
20260831001521 65 306 0.0 10.0 0.00 0.06 0.06 86 1014.5
20260831000007 65 313 0.0 9.0 0.00 0.06 0.06 86 1014.1
20260830234511 66 265 0.0 10.0 0.00 0.06 0.06 85 1013.8
20260830233012 66 359 3.0 12.0 0.00 0.06 0.06 84 1013.5
20260830231517 66 359 4.0 12.0 0.00 0.06 0.06 83 1013.6
20260830230029 66 295 7.0 14.0 0.00 0.06 0.06 82 1013.6
20260830224506 67 271 7.0 12.0 0.00 0.06 0.06 82 1013.6
20260830223010 67 359 8.0 14.0 0.00 0.06 0.06 81 1013.6
20260830221517 67 359 10.0 24.0 0.00 0.06 0.06 81 1013.7
20260830220025 67 302 9.0 21.0 0.00 0.06 0.06 80 1013.4
20260830214524 68 297 10.0 18.0 0.00 0.06 0.06 80 1013.2
20260830213010 68 303 7.0 20.0 0.00 0.06 0.06 81 1013.1
20260830211518 68 318 4.0 16.0 0.00 0.06 0.06 82 1013.2
20260830210017 68 359 5.0 22.0 0.00 0.06 0.06 83 1013.1
20260830204522 66 323 1.0 11.0 0.00 0.06 0.06 87 1013.0
20260830203010 66 324 4.0 7.0 0.00 0.06 0.06 88 1013.3
20260830201533 66 249 0.0 9.0 0.00 0.06 0.06 85 1013.4
20260830200004 67 335 5.0 15.0 0.00 0.06 0.06 83 1013.3
20260830194510 67 359 5.0 8.0 0.00 0.06 0.06 85 1013.3
20260830193019 67 315 4.0 10.0 0.00 0.06 0.06 86 1013.5
20260830191513 66 359 1.0 10.0 0.00 0.06 0.06 90 1013.4
20260830190011 65 314 0.0 7.0 0.00 0.06 0.06 93 1013.8
20260830184514 65 320 0.0 4.0 0.00 0.06 0.06 93 1014.0
20260830183022 65 178 0.0 4.0 0.00 0.06 0.06 93 1014.1
20260830181511 65 233 2.0 6.0 0.00 0.06 0.06 93 1014.0
20260830180039 65 293 0.0 0.0 0.00 0.06 0.06 93 1014.0
20260830174508 65 286 0.0 7.0 0.00 0.06 0.06 93 1013.9
20260830173008 65 359 0.0 7.0 0.00 0.06 0.06 92 1014.2
20260830171514 65 235 0.0 7.0 0.00 0.06 0.06 92 1014.4
20260830170044 65 359 5.0 11.0 0.00 0.06 0.06 92 1014.6
20260830164525 64 327 4.0 11.0 0.00 0.06 0.06 92 1014.7
20260830163025 65 324 0.0 8.0 0.00 0.06 0.06 93 1014.6
20260830161524 65 255 0.0 4.0 0.00 0.06 0.06 93 1014.6
20260830160023 65 91 0.0 10.0 0.00 0.06 0.06 93 1014.5
20260830154521 65 359 0.0 9.0 0.00 0.06 0.06 95 1014.7
20260830153018 64 316 0.0 9.0 0.00 0.06 0.06 96 1015.0
20260830151515 63 319 0.0 2.0 0.00 0.06 0.06 96 1015.1
20260830150024 62 314 0.0 4.0 0.00 0.06 0.06 96 1015.2
20260830144510 62 359 0.0 1.0 0.00 0.06 0.06 96 1015.3
20260830143011 61 264 1.0 4.0 0.01 0.06 0.06 96 1015.2
20260830141520 61 295 0.0 0.0 0.01 0.06 0.06 96 1015.3
20260830140007 60 275 0.0 0.0 0.01 0.06 0.06 96 1015.3
20260830134503 60 359 0.0 0.0 0.01 0.06 0.06 96 1015.2
20260830133111 59 220 0.0 0.0 0.00 0.05 0.05 96 1015.7
20260830131601 59 220 0.0 0.0 0.00 0.05 0.05 96 1015.6
20260830130059 59 220 0.0 0.0 0.00 0.05 0.05 96 1015.4
20260830124619 59 218 0.0 0.0 0.00 0.05 0.05 96 1015.5
20260830123103 59 359 0.0 0.0 0.00 0.05 0.05 96 1015.5
20260830121556 58 218 0.0 0.0 0.01 0.05 0.05 95 1015.8
20260830120058 58 218 0.0 0.0 0.01 0.05 0.05 95 1015.9
20260830114607 58 270 0.0 0.0 0.01 0.05 0.05 95 1015.8
20260830113053 58 235 0.0 1.0 0.01 0.05 0.05 95 1015.8
20260830111553 58 261 0.0 6.0 0.00 0.04 0.04 95 1015.7
20260830110051 58 231 0.0 0.0 0.00 0.04 0.04 95 1015.5
20260830104555 58 219 0.0 0.0 0.00 0.04 0.04 95 1015.4
20260830103050 58 245 0.0 1.0 0.01 0.04 0.04 95 1015.6
20260830101551 58 245 0.0 0.0 0.02 0.04 0.04 95 1015.7
20260830100049 58 359 0.0 0.0 0.02 0.04 0.04 95 1015.8
20260830094551 58 237 1.0 4.0 0.04 0.04 0.04 94 1016.0
20260830093047 58 321 0.0 4.0 0.03 0.03 0.03 94 1015.7
20260830091547 58 266 0.0 0.0 0.02 0.02 0.02 93 1015.6
20260830090059 58 265 0.0 0.0 0.02 0.02 0.02 91 1015.7
20260830084546 58 359 0.0 0.0 0.00 0.00 0.00 89 1015.9
20260830083043 58 296 0.0 0.0 0.00 0.00 0.00 89 1015.7
20260830081547 58 314 0.0 1.0 0.00 0.00 0.00 89 1015.7